Terug naar catalogus

COSMOS 1607

ActiefMilitairLEO
NORAD 15378·PAYLOAD·🇷🇺 Russia

Gelanceerd Oct 31, 1984 vanaf Baikonur Cosmodrome

Loading…

Volgende Passages (komende 24 uur)

TLE

VersSource: Space-Track

Epoch: Sep 14, 2026, 05:19 UTC

1 15378U 84112A   26257.22152975 -.00000063  00000-0  23244-4 0  9994
2 15378  64.9917 190.7633 0054762 308.5133  51.1023 13.83714776117309

Volg COSMOS 1607 in realtime met AllMySat

Download on the App Store